Location: Newark
(45.2500°N, 7.5833°E)
Time: 22:14:29
(UTC+00:00)

First-Move - Pass Details

Date: 26 February 2020
Orbit: 576 x 669 km, 97.6° (Epoch: 06 April)

Event Time Altitude Azimuth Distance (km) Brightness Sun altitude
Rises 04:18:49 0° 30° (NNE) 3,022 ? -21.0°
Reaches altitude 10° 04:22:04 10° 55° (NE) 2,096 ? -20.5°
Maximum altitude 04:24:36 15° 89° (E) 1,793 ? -20.0°
Drops below altitude 10° 04:27:06 10° 123° (ESE) 2,070 ? -19.6°
Sets 04:30:16 0° 147° (SSE) 2,959 ? -19.0°
